BEIDOU-3 M6 (C22)

Last updated on Aug. 7, 2020, 5:36 a.m. UTC

1 43208U 18018B   20219.44009079 -.00000013  00000-0  00000-0 0  9997
2 43208  55.1903 134.6611 0008610 305.3953  54.5438  1.86231809 16876
UTC
Height (km)
Latitude
Longitude
Inclination
Orbital Period
UTC large
Height (km)
Speed (km/s)
/
Latitude / Longitude
Inclination (degrees)
Orbital Period (minutes)
Azimuth
Elevation
Range (km)
Doppler Factor
iOS Compass Heading
iOS Angle

Next 30 passes for location: Hong Kong

Rise time Rise Azimuth (degrees) Set time Set Azimuth (degrees) Duration Max altitude (degrees)

No matching passes for this satellites